DW5164 Weather Reports


time (UTC)temp
F
wind
direction
speed
knots
gust
knots
rain 1hr
in
rain 24hr
in
rain mn
in
humidity
%
barometer
mb
20260903081427 80 107 3.5 7.8 0.00 0.00 0.00 68 1018.3
20260903080926 80 74 5.2 8.7 0.00 0.00 0.00 68 1018.3
20260903080427 79 61 4.3 7.8 0.00 0.00 0.00 70 1018.4
20260903075927 78 89 3.5 7.0 0.00 0.00 0.00 73 1018.4
20260903074927 78 67 2.6 4.3 0.00 0.00 0.00 77 1018.3
20260903074426 78 83 2.6 4.3 0.00 0.00 0.00 77 1018.3
20260903073927 77 80 1.7 4.3 0.00 0.00 0.00 77 1018.2
20260903073426 77 81 1.7 5.2 0.00 0.00 0.00 77 1018.2
20260903072926 77 26 1.7 2.6 0.00 0.00 0.00 78 1018.2
20260903072427 76 102 2.6 4.3 0.00 0.00 0.00 79 1018.2
20260903071926 75 119 1.7 2.6 0.00 0.00 0.00 81 1018.2
20260903071429 75 102 1.7 2.6 0.00 0.00 0.00 80 1018.1
20260903070430 75 93 1.7 4.3 0.00 0.00 0.00 82 1018.1
20260903065926 75 90 1.7 4.3 0.00 0.00 0.00 83 1018.1
20260903065426 74 76 1.7 4.3 0.00 0.00 0.00 82 1018.1
20260903064933 74 69 1.7 2.6 0.00 0.00 0.00 82 1018.1
20260903064426 74 68 1.7 2.6 0.00 0.00 0.00 83 1018.1
20260903063428 73 75 0.9 2.6 0.00 0.00 0.00 83 1018.0
20260903062427 73 55 1.7 2.6 0.00 0.00 0.00 83 1018.0
20260903061926 73 55 0.9 1.7 0.00 0.00 0.00 83 1018.0
20260903060926 72 53 1.7 2.6 0.00 0.00 0.00 83 1018.0
20260903060426 72 53 0.9 1.7 0.00 0.00 0.00 84 1018.0
20260903055929 71 53 0.9 1.7 0.00 0.00 0.00 85 1018.0
20260903055427 71 44 1.7 2.6 0.00 0.00 0.00 87 1017.8
20260903054427 70 13 0.9 1.7 0.00 0.00 0.00 89 1017.7
20260903053927 69 347 0.0 0.0 0.00 0.00 0.00 89 1017.6
20260903053426 69 347 0.0 0.9 0.00 0.00 0.00 89 1017.6
20260903052927 69 347 0.0 1.7 0.00 0.00 0.00 90 1017.5
20260903052430 68 347 0.0 0.0 0.00 0.00 0.00 91 1017.4
20260903051928 68 347 0.0 0.0 0.00 0.00 0.00 91 1017.4
20260903051426 68 347 0.0 0.0 0.00 0.00 0.00 91 1017.4
20260903050926 68 330 0.0 0.0 0.00 0.00 0.00 91 1017.3
20260903045426 68 355 0.0 0.0 0.00 0.00 0.00 90 1017.2
20260903044926 68 0 0.0 0.0 0.00 0.00 0.00 90 1017.1
20260903044429 68 0 0.0 0.9 0.00 0.00 0.00 90 1017.0
20260903043926 68 0 0.9 1.7 0.00 0.00 0.00 90 1017.0
20260903043426 68 0 0.9 2.6 0.00 0.00 0.00 90 1016.9
20260903042427 68 57 0.0 1.7 0.00 0.00 0.00 90 1016.9
20260903041931 69 57 0.0 0.0 0.00 0.00 0.00 90 1016.9
20260903041426 69 57 0.0 0.0 0.00 0.00 0.00 89 1016.8
20260903040942 69 57 0.0 0.9 0.00 0.00 0.00 89 1016.9
20260903035925 69 57 0.9 1.7 0.00 0.00 0.00 90 1016.9
20260903035426 69 57 0.9 1.7 0.00 0.00 0.00 89 1016.9
20260903034927 69 57 1.7 2.6 0.00 0.00 0.00 89 1016.8
20260903033933 69 57 1.7 4.3 0.00 0.00 0.00 90 1016.9
20260903033427 68 53 2.6 2.6 0.00 0.00 0.00 90 1016.8
20260903032941 68 67 1.7 2.6 0.00 0.00 0.00 91 1016.8
20260903032426 68 71 2.6 4.3 0.00 0.00 0.00 91 1016.8
20260903031426 68 74 0.0 0.0 0.00 0.00 0.00 91 1016.7
20260903030926 68 74 0.0 0.0 0.00 0.00 0.00 91 1016.8
20260903030426 68 74 0.0 0.0 0.00 0.00 0.00 91 1016.8
20260903025925 68 74 0.0 0.0 0.00 0.00 0.00 91 1016.8
20260903025425 68 74 0.0 0.0 0.00 0.00 0.00 91 1016.8
20260903024927 68 74 0.0 0.0 0.00 0.00 0.00 90 1016.8
20260903024426 69 83 0.0 0.0 0.00 0.00 0.00 90 1016.8
20260903023927 69 83 0.0 0.0 0.00 0.00 0.00 90 1016.8
20260903023427 69 83 0.0 0.0 0.00 0.00 0.00 90 1016.8
20260903022942 69 56 0.0 0.0 0.00 0.00 0.00 90 1016.7
20260903022426 69 56 0.0 0.0 0.00 0.00 0.00 90 1016.7
20260903021926 69 56 0.0 0.0 0.00 0.00 0.00 90 1016.8
20260903020925 69 56 0.0 0.0 0.00 0.00 0.00 89 1016.8
20260903020425 69 56 0.0 0.0 0.00 0.00 0.00 89 1016.7
20260903015926 69 56 0.0 0.0 0.00 0.00 0.00 89 1016.7
20260903014926 69 56 1.7 2.6 0.00 0.00 0.00 89 1016.7
20260903014425 69 56 1.7 2.6 0.00 0.00 0.00 88 1016.7
20260903013426 69 57 0.9 1.7 0.00 0.00 0.00 88 1016.7
20260903012925 69 57 0.9 1.7 0.00 0.00 0.00 88 1016.7
20260903012427 69 40 0.9 1.7 0.00 0.00 0.00 88 1016.6
20260903011425 69 66 1.7 2.6 0.00 0.00 0.00 87 1016.6
20260903010930 69 66 0.0 2.6 0.00 0.00 0.00 87 1016.7
20260903010428 69 66 1.7 2.6 0.00 0.00 0.00 87 1016.7
20260903005925 70 66 2.6 2.6 0.00 0.00 0.00 87 1016.7
20260903004425 70 66 0.9 2.6 0.00 0.00 0.00 86 1016.6
20260903003925 70 66 1.7 2.6 0.00 0.00 0.00 86 1016.6
20260903003426 70 66 1.7 2.6 0.00 0.00 0.00 85 1016.5
20260903001426 71 55 1.7 2.6 0.00 0.00 0.00 85 1016.5
20260903000926 71 55 0.9 1.7 0.00 0.00 0.00 85 1016.5
20260903000426 71 56 0.9 1.7 0.00 0.00 0.00 84 1016.5
20260902235925 71 56 0.9 1.7 0.00 0.00 0.00 84 1016.4
20260902234925 71 55 1.7 2.6 0.00 0.00 0.00 85 1016.4
20260902234425 71 56 1.7 2.6 0.00 0.00 0.00 86 1016.3
20260902232425 72 56 1.7 2.6 0.00 0.00 0.00 85 1016.4
20260902231925 72 56 1.7 2.6 0.00 0.00 0.00 86 1016.4
20260902231426 71 56 1.7 2.6 0.00 0.00 0.00 86 1016.4
20260902230425 72 37 1.7 2.6 0.00 0.00 0.00 86 1016.4
20260902225925 72 37 0.0 1.7 0.00 0.00 0.00 85 1016.3
20260902225425 72 37 0.9 2.6 0.00 0.00 0.00 84 1016.3
20260902224927 73 37 2.6 2.6 0.00 0.00 0.00 84 1016.3
20260902224440 73 38 0.9 2.6 0.00 0.00 0.00 84 1016.3
20260902223425 73 16 2.6 4.3 0.00 0.00 0.00 84 1016.2
20260902221926 73 180 0.9 1.7 0.00 0.00 0.00 83 1016.1
20260902221425 73 180 0.0 0.0 0.00 0.00 0.00 82 1016.1
20260902220925 73 180 0.0 0.0 0.00 0.00 0.00 82 1016.1
20260902215925 74 180 0.0 0.0 0.00 0.00 0.00 81 1016.1
20260902215425 74 180 0.9 1.7 0.00 0.00 0.00 80 1016.0
20260902214940 74 180 0.0 0.0 0.00 0.00 0.00 80 1016.0
20260902214427 74 180 0.9 1.7 0.00 0.00 0.00 81 1016.0
20260902213925 74 180 0.9 1.7 0.00 0.00 0.00 81 1016.0
20260902212425 74 211 0.0 0.0 0.00 0.00 0.00 80 1015.8
20260902211924 74 211 0.0 0.0 0.00 0.00 0.00 80 1015.8
20260902211425 75 211 0.0 0.0 0.00 0.00 0.00 79 1015.7
20260902210924 75 211 0.0 0.0 0.00 0.00 0.00 79 1015.7
20260902210424 75 211 0.0 0.0 0.00 0.00 0.00 78 1015.7
20260902205925 75 211 0.0 0.0 0.00 0.00 0.00 78 1015.7
20260902205425 75 211 0.0 0.0 0.00 0.00 0.00 78 1015.7
20260902204924 75 211 0.0 1.7 0.00 0.00 0.00 77 1015.7
20260902202924 75 202 1.7 2.6 0.00 0.00 0.00 77 1015.5
20260902202424 76 138 0.0 0.0 0.00 0.00 0.00 77 1015.5
20260902201924 76 138 0.0 0.0 0.00 0.00 0.00 77 1015.5
20260902200932 75 138 0.0 0.9 0.00 0.00 0.00 78 1015.5
20260902195925 75 138 1.7 2.6 0.00 0.00 0.00 76 1015.5
20260902195424 75 138 0.9 2.6 0.00 0.00 0.00 75 1015.5
20260902194926 76 142 0.9 1.7 0.00 0.00 0.00 73 1015.5
20260902193924 77 296 0.0 0.0 0.00 0.00 0.00 72 1015.4
20260902192925 78 296 0.0 0.0 0.00 0.00 0.00 72 1015.4
20260902192424 78 296 0.0 0.0 0.00 0.00 0.00 73 1015.4
20260902191925 78 296 0.0 0.0 0.00 0.00 0.00 73 1015.3
20260902190940 78 296 0.0 0.0 0.00 0.00 0.00 72 1015.2
20260902185925 78 296 0.0 0.0 0.00 0.00 0.00 71 1015.2
20260902184926 78 296 0.0 0.0 0.00 0.00 0.00 72 1015.1
20260902183925 79 296 0.0 0.0 0.00 0.00 0.00 70 1014.9
20260902182927 80 296 0.0 0.0 0.00 0.00 0.00 69 1014.8
20260902182425 80 296 0.0 0.0 0.00 0.00 0.00 68 1014.8
20260902181924 80 296 0.0 0.0 0.00 0.00 0.00 68 1014.7
20260902181424 80 296 0.0 0.0 0.00 0.00 0.00 66 1014.6
20260902180941 81 296 0.0 0.0 0.00 0.00 0.00 66 1014.6
20260902175924 82 296 0.0 0.0 0.00 0.00 0.00 65 1014.5
20260902175426 82 296 0.0 0.9 0.00 0.00 0.00 64 1014.5
20260902174924 83 296 0.0 0.9 0.00 0.00 0.00 62 1014.5
20260902173925 85 296 1.7 1.7 0.00 0.00 0.00 55 1014.4
20260902173424 85 296 0.9 1.7 0.00 0.00 0.00 55 1014.4
20260902172425 86 341 0.9 2.6 0.00 0.00 0.00 55 1014.3
20260902171924 87 301 1.7 2.6 0.00 0.00 0.00 53 1014.2
20260902171426 87 303 1.7 4.3 0.00 0.00 0.00 53 1014.2
20260902170424 87 299 1.7 4.3 0.00 0.00 0.00 53 1014.3
20260902165931 88 280 1.7 2.6 0.00 0.00 0.00 51 1014.3
20260902165424 88 273 1.7 2.6 0.00 0.00 0.00 50 1014.4
20260902164939 88 301 1.7 2.6 0.00 0.00 0.00 49 1014.5
20260902163923 88 300 1.7 2.6 0.00 0.00 0.00 50 1014.4
20260902163431 88 227 1.7 4.3 0.00 0.00 0.00 50 1014.5
20260902162923 88 223 4.3 6.1 0.00 0.00 0.00 49 1014.4
20260902162424 89 194 2.6 4.3 0.00 0.00 0.00 48 1014.4
20260902161424 89 298 4.3 6.1 0.00 0.00 0.00 48 1014.4
20260902160924 89 314 3.5 6.1 0.00 0.00 0.00 49 1014.5
20260902160424 89 305 3.5 4.3 0.00 0.00 0.00 49 1014.5
20260902155928 89 315 1.7 2.6 0.00 0.00 0.00 50 1014.4
20260902155425 89 267 0.9 2.6 0.00 0.00 0.00 49 1014.4
20260902154924 89 307 3.5 5.2 0.00 0.00 0.00 48 1014.5
20260902154423 89 290 4.3 7.8 0.00 0.00 0.00 49 1014.5
20260902153924 89 314 2.6 7.0 0.00 0.00 0.00 48 1014.6
20260902153431 89 286 4.3 7.0 0.00 0.00 0.00 48 1014.6
20260902152923 90 265 4.3 7.0 0.00 0.00 0.00 47 1014.7
20260902151924 90 264 1.7 6.1 0.00 0.00 0.00 49 1014.7
20260902151423 89 348 0.9 6.1 0.00 0.00 0.00 52 1014.8
20260902150926 89 1 1.7 2.6 0.00 0.00 0.00 50 1014.8
20260902145423 90 272 2.6 6.1 0.00 0.00 0.00 49 1014.8
20260902144924 90 281 5.2 7.8 0.00 0.00 0.00 48 1014.9
20260902143925 89 279 5.2 8.7 0.00 0.00 0.00 51 1015.0
20260902143423 90 270 3.5 7.8 0.00 0.00 0.00 51 1015.0
20260902142927 89 236 3.5 6.1 0.00 0.00 0.00 51 1015.1
20260902141923 89 246 0.9 2.6 0.00 0.00 0.00 52 1015.2
20260902141441 90 261 4.3 7.8 0.00 0.00 0.00 52 1015.2
20260902140924 89 236 5.2 7.8 0.00 0.00 0.00 52 1015.2
20260902135926 89 247 5.2 8.7 0.00 0.00 0.00 51 1015.4
20260902135423 90 46 0.9 2.6 0.00 0.00 0.00 53 1015.4
20260902134923 90 293 1.7 2.6 0.00 0.00 0.00 52 1015.4
20260902133924 90 205 2.6 6.1 0.00 0.00 0.00 52 1015.6
20260902133423 89 253 2.6 5.2 0.00 0.00 0.00 53 1015.6
20260902132925 90 211 4.3 7.0 0.00 0.00 0.00 53 1015.7
20260902131424 89 302 0.9 2.6 0.00 0.00 0.00 54 1015.9
20260902130924 89 333 4.3 6.1 0.00 0.00 0.00 55 1015.9
20260902130423 87 136 1.7 5.2 0.00 0.00 0.00 57 1016.0
20260902125923 87 77 2.6 4.3 0.00 0.00 0.00 57 1016.0
20260902124925 87 96 2.6 4.3 0.00 0.00 0.00 59 1016.1
20260902124424 87 126 0.9 4.3 0.00 0.00 0.00 58 1016.2
20260902122924 87 93 4.3 6.1 0.00 0.00 0.00 58 1016.3
20260902122424 87 107 3.5 7.0 0.00 0.00 0.00 59 1016.3
20260902121924 86 33 3.5 8.7 0.00 0.00 0.00 57 1016.4
20260902120925 87 81 3.5 7.8 0.00 0.00 0.00 58 1016.5
20260902120423 87 16 1.7 2.6 0.00 0.00 0.00 58 1016.5
20260902115423 86 78 2.6 5.2 0.00 0.00 0.00 56 1016.7
20260902114423 85 60 1.7 2.6 0.00 0.00 0.00 57 1016.8
20260902113935 85 108 2.6 4.3 0.00 0.00 0.00 60 1016.9
20260902113427 84 78 2.6 5.2 0.00 0.00 0.00 59 1016.9
20260902112925 85 74 2.6 4.3 0.00 0.00 0.00 60 1016.9
20260902112424 84 101 1.7 6.1 0.00 0.00 0.00 59 1017.0
20260902111927 85 133 1.7 6.1 0.00 0.00 0.00 57 1017.0
20260902111440 85 115 4.3 7.0 0.00 0.00 0.00 57 1017.1
20260902105922 85 105 2.6 6.1 0.00 0.00 0.00 57 1017.3
20260902105422 84 103 2.6 4.3 0.00 0.00 0.00 53 1017.4
20260902104922 84 97 1.7 2.6 0.00 0.00 0.00 54 1017.4
20260902104423 84 153 1.7 5.2 0.00 0.00 0.00 53 1017.5
20260902103923 86 92 2.6 7.8 0.00 0.00 0.00 52 1017.5
20260902103423 85 90 1.7 4.3 0.00 0.00 0.00 54 1017.6
20260902102923 85 331 1.7 2.6 0.00 0.00 0.00 50 1017.6
20260902101924 84 94 2.6 6.1 0.00 0.00 0.00 56 1017.7
20260902100923 83 100 2.6 4.3 0.00 0.00 0.00 58 1017.8
20260902095923 83 90 1.7 4.3 0.00 0.00 0.00 59 1017.9
20260902095423 83 114 2.6 4.3 0.00 0.00 0.00 61 1017.9
20260902094923 83 182 1.7 2.6 0.00 0.00 0.00 60 1018.0
20260902094423 83 131 0.9 6.1 0.00 0.00 0.00 62 1018.0
20260902093923 83 110 1.7 2.6 0.00 0.00 0.00 63 1018.0
20260902092923 81 130 0.9 2.6 0.00 0.00 0.00 65 1018.1
20260902091423 82 141 2.6 4.3 0.00 0.00 0.00 64 1018.0
20260902090422 82 161 0.9 2.6 0.00 0.00 0.00 64 1018.0
20260902085923 82 49 1.7 2.6 0.00 0.00 0.00 65 1018.0
20260902085422 81 127 0.9 2.6 0.00 0.00 0.00 65 1018.1
20260902084922 81 164 2.6 7.0 0.00 0.00 0.00 65 1018.1
20260902084422 81 96 0.9 2.6 0.00 0.00 0.00 68 1018.1
20260902083922 81 98 2.6 2.6 0.00 0.00 0.00 67 1018.1
20260902083422 81 132 1.7 4.3 0.00 0.00 0.00 65 1018.1
20260902082430 80 107 1.7 4.3 0.00 0.00 0.00 66 1018.0
20260902081923 81 136 0.9 4.3 0.00 0.00 0.00 66 1018.1